Regional Weather Roundup
Issued by NWS

Home | Current Version | Previous Version | Graphics & Text | Print | Product List | Glossary Off
Versions: 1 2 3 4 5 6 7 8 9 10 11 12 13 14 15 16 17 18 19 20 21 22 23 24 25 26 27 28 29 30 31 32 33 34 35 36 37 38 39 40 41 42 43 44 45 46 47 48 49 50

000
ASUS43 KDMX 260601
RWRIA

WEATHER ROUNDUP FOR IOWA
NATIONAL WEATHER SERVICE DES MOINES IA
1200 AM CST SUN FEB 26 2017

NOTE: "FAIR" INDICATES FEW OR NO CLOUDS BELOW 12,000 FEET WITH NO
SIGNIFICANT WEATHER AND/OR OBSTRUCTIONS TO VISIBILITY.

* - THESE STATIONS ARE NOT NWS STATIONS...THUS NOT UNDER NWS
QUALITY CONTROL.  THEY ALSO DO NOT REPORT WEATHER SUCH
AS PRECIPITATION OR FOG.

IAZ001>003-012>014-020>022-031>034-043>046-260700-
   NORTHWEST IOWA

CITY           SKY/WX    TMP DP  RH WIND       PRES   REMARKS
CARROLL *      MOCLDY    27  21  80 S9        29.86F WCI  17
CHEROKEE *     CLOUDY    22  17  82 S7        29.83F WCI  13
DENISON *      PTCLDY    25  19  80 SW7       29.84F WCI  17
LE MARS *      CLOUDY    23  18  80 S5        29.83F WCI  17
SHELDON *      CLOUDY    23  23 100 SW10      29.79F WCI  12
SIOUX CITY     CLOUDY    21  16  81 E7        29.83F WCI  12
6HR MIN TEMP:  19; 6HR MAX TEMP:  28;

SPENCER        PTCLDY    14  11  87 S5        29.82F WCI   6
6HR MIN TEMP:  14; 6HR MAX TEMP:  24;

STORM LAKE *   CLOUDY    21  18  86 S9        29.83F WCI  11
$$

IAZ055>058-069>071-079>083-090>094-260700-
   SOUTHWEST IOWA

CITY           SKY/WX    TMP DP  RH WIND       PRES   REMARKS
ATLANTIC *     PTCLDY    30  21  69 S13       29.88F WCI  20
AUDUBON *      PTCLDY    30  19  64 S13       29.86F WCI  20
CLARINDA *     CLOUDY    34  21  60 S10       29.95S WCI  26
COUNCIL BLFS * PTCLDY    34  21  60 SW15      29.87F WCI  24
CRESTON *      CLOUDY    30  18  59 S15       29.92F WCI  19
HARLAN  *      CLEAR     27  21  80 SW7       29.90F WCI  19
LAMONI         CLOUDY    31  15  52 S13       29.95F WCI  21
6HR MIN TEMP:  27; 6HR MAX TEMP:  31;

RED OAK *      CLOUDY    34  23  64 S13       29.90F WCI  25
SHENANDOAH *   CLOUDY    36  23  60 S14       29.92S WCI  27
$$

IAZ047>049-059>061-072>074-084-260700-
   CENTRAL IOWA

CITY           SKY/WX    TMP DP  RH WIND       PRES   REMARKS
AMES           CLOUDY    30  22  72 S9        29.91F WCI  22
6HR MIN TEMP:  21; 6HR MAX TEMP:  30;

ANKENY *       PTCLDY    30  19  64 S10       29.93F WCI  21
BOONE *        CLOUDY    28  19  69 S12       29.88F WCI  18
CHARITON *     MOCLDY    30  18  59 S15       29.95F WCI  19
DES MOINES     PTCLDY    30  19  63 S9        29.92F WCI  22
6HR MIN TEMP:  28; 6HR MAX TEMP:  32;

GRINNELL*      CLOUDY    28  21  77 S10       29.96F WCI  18
KNOXVILLE *    CLOUDY    30  18  59 S12       29.94F WCI  21
MARSHALLTOWN   CLOUDY    28  20  71 S9        29.92F WCI  19
6HR MIN TEMP:  23; 6HR MAX TEMP:  28;

NEWTON *       CLOUDY    28  21  74 S10       29.93F WCI  19
PELLA *        PTCLDY    30  20  66 S8        29.97F WCI  23
PERRY *          N/A     27  21  79 S12       29.89F WCI  16
$$

IAZ004>006-015-016-023>025-035-036-260700-
   NORTH CENTRAL IOWA

CITY           SKY/WX    TMP DP  RH WIND       PRES   REMARKS
ALGONA *       FLURRIES  19  16  86 S14       29.83F WCI   6
CLARION *      MOCLDY    25  21  86 S15       29.86F WCI  12
ESTHERVILLE    PTCLDY    16  13  88 SW8       29.81F WCI   5
6HR MIN TEMP:  15; 6HR MAX TEMP:  24;

FORT DODGE *   CLEAR     27  18  69 S14       29.86F WCI  15
MASON CITY     CLOUDY    21  16  81 S10       29.87F WCI  10
6HR MIN TEMP:  17; 6HR MAX TEMP:  21;

FOREST CITY *  CLOUDY    25  21  86 S10       29.85F WCI  15
WEBSTER CITY * PTCLDY    27  19  74 S14       29.85F WCI  15
IOWA FALLS *   CLOUDY    27  22  79 S12       29.90F WCI  17
$$

IAZ007>011-017>019-026>030-037>042-050>054-066-260700-
   NORTHEAST IOWA

CITY           SKY/WX    TMP DP  RH WIND       PRES   REMARKS
CEDAR RAPIDS   PTCLDY    24  18  77 S8        29.98F WCI  15
6HR MIN TEMP:  20; 6HR MAX TEMP:  25;

CHARLES CITY * CLOUDY    25  19  80 S14       29.90F WCI  13
CLINTON *      CLOUDY    24  21  88 S7        30.04F WCI  16
DECORAH *      CLOUDY    23  18  80 S10       29.90F WCI  12
DUBUQUE        CLOUDY    23  18  81 S9        29.98F WCI  13
6HR MIN TEMP:  18; 6HR MAX TEMP:  23;

MONTICELLO *   CLOUDY    25  19  80 SE7       29.99F WCI  17
OELWEIN *      CLOUDY    25  21  86 S10       29.94F WCI  15
WATERLOO       CLOUDY    26  18  71 S10       29.93F WCI  16
6HR MIN TEMP:  22; 6HR MAX TEMP:  26;

$$

IAZ064-065-067-068-078-260700-
   EAST CENTRAL IOWA

CITY           SKY/WX    TMP DP  RH WIND       PRES   REMARKS
DAVENPORT      CLOUDY    27  19  72 S7        30.04F WCI  19
6HR MIN TEMP:  24; 6HR MAX TEMP:  28;

IOWA CITY      CLOUDY    27  19  72 SE8       30.03F WCI  19
6HR MIN TEMP:  25; 6HR MAX TEMP:  28;

MUSCATINE *    CLOUDY    27  21  80 S7        30.04F WCI  19
QUAD CITIES    CLOUDY    28  18  66 S7        30.05F WCI  21
6HR MIN TEMP:  26; 6HR MAX TEMP:  30;

$$

IAZ062-063-075>077-085>089-095>099-260700-
   SOUTHEAST IOWA

CITY           SKY/WX    TMP DP  RH WIND       PRES   REMARKS
BURLINGTON     CLOUDY    26  19  74 S6        30.05F WCI  19
6HR MIN TEMP:  25; 6HR MAX TEMP:  30;

FAIRFIELD *    CLOUDY    30  16  55 S10       30.00F WCI  21
KEOKUK *       CLOUDY    27  16  63 S5        30.05F WCI  21
CENTERVILLE *    N/A     28  16  59 S5        30.00F WCI  23
OTTUMWA        CLOUDY    30  18  60 S9        29.99F WCI  22
6HR MIN TEMP:  25; 6HR MAX TEMP:  30;

WASHINGTON *   CLOUDY    23  18  80 S8        30.03F WCI  14
$$

ABBREVIATIONS USED IN REMARKS
   TC - TEMPERATURES IN CELSIUS
  WCI - WIND CHILL INDEX
   HX - HEAT INDEX
  VSB - VISIBILITY
$$




USA.gov is the U.S. government's official web portal to all federal, state and local government web resources and services.